Simultaneous Nadir Overpasses (SNOs) Predictions

Prediction of SNOs between AQUA and GOES-15 Satellite Orbit:

Table of predicted SNOs for the next 14.0 days since TLE Epoch: 12/26/2014
Index Date Time (AQUA) AQUA Lat,Lon GOES-15 Lat,Lon Distance(km) Time Diff (sec)
1 12/26/2014 22:41:36 -0.16,-136.42 0.09,-135.30 128.20 80
2 12/28/2014 22:29:24 0.45,-133.46 0.09,-135.26 205.05 80
3 12/29/2014 10:50:40 0.60,-138.62 -0.10,-135.30 377.89 80
4 12/31/2014 10:38:27 0.00,-135.65 -0.10,-135.26 44.92 80
5 01/02/2015 10:26:14 -0.63,-132.68 -0.09,-135.21 287.86 80
6 01/02/2015 22:47:37 -0.51,-137.86 0.10,-135.16 308.31 80
7 01/04/2015 22:35:23 0.12,-134.89 0.09,-135.11 24.38 80
8 01/06/2015 22:23:09 0.78,-131.93 0.09,-135.06 356.72 80
9 01/07/2015 10:44:24 0.30,-137.08 -0.10,-135.09 225.96 80
10 01/09/2015 10:32:08 -0.28,-134.10 -0.09,-135.03 106.29 80




NCC Satellite Simultaneous Nadir Overpasses (SNOs) Prediction Service
